Other Surface Observations
Issued by NWS

Home | Current Version | Previous Version | Text Only | Print | Product List | Glossary On
Versions: 1 2 3 4 5 6 7 8 9 10 11 12 13 14 15 16 17 18 19 20 21 22 23 24 25 26 27 28 29 30 31 32 33 34 35 36 37 38 39 40 41 42 43 44 45 46 47 48 49 50
000
SXUS52 KTAE 302106
OSOTAE
OSOTAE
North Florida/South Alabama/Southwest Georgia Weather Roundup
National Weather Service Tallahassee Florida
500 PM EDT SUN AUG 30 2015

Note: "fair" indicates few or no clouds below 12,000 feet with no
significant weather and/or obstructions to visibility.

!FLZ017-115-028-034-025-302200
...North Florida...

CITY           SKY/WX    TMP DP  RH WIND       PRES   REMARKS
TALLAHASSEE    PTSUNNY   93  69  45 N9        29.96F HX  98
APALACHICOLA   MOSUNNY   89  74  60 S12       29.97F HX  98
PERRY          MOSUNNY   91  52  26 NW6       29.97S
CROSS CITY       N/A     88  78  72 VRB3      29.96F HX 101
JACKSONVILLE   LGT RAIN  78  76  93 E6        30.00F
$$

!FLZ112-006-005-002-011-302200
...Florida Panhandle...

CITY           SKY/WX    TMP DP  RH WIND       PRES   REMARKS
MARIANNA       SUNNY     90  69  50 NW9       29.98F HX  94
BONIFAY        FAIR      91  70  49 NW5       29.99F HX  96
PANAMA CITY NW FAIR      91  67  44 NW7       29.97F HX  94
TYNDALL AFB    SUNNY     88  74  63 W9        29.97F HX  96
TYND DRONE APT FAIR      87  75  67 W7        29.97F HX  95
DE FUNIAK SPR  FAIR      87  67  50 N7        30.00F HX  90
EGLIN AFB      MOSUNNY   89  69  52 SW8       29.98F HX  93
DESTIN         SUNNY     87  72  60 SW7       29.99F HX  93
HURLBURT       SUNNY     87  69  55 SW8       29.98F HX  91
CRESTVIEW      SUNNY     92  69  47 VRB3      30.00F HX  97
PENSACOLA      SUNNY     86  72  62 S10       30.00F HX  92
$$

!ALZ063-066-302200
...South Alabama...

CITY           SKY/WX    TMP DP  RH WIND       PRES   REMARKS
DOTHAN         SUNNY     88  69  53 NW6       30.04F HX  92
OZARK CAIRNS     N/A     89  67  48 NW7       30.00F HX  92
FT RUCKER HELI SUNNY     89  66  46 NW7       29.99F HX  91
RUCKER HELI 3  FAIR      86  65  49 NW5       30.02F
RUCKER HELI 2  NOT AVBL
FLORALA APT    MOSUNNY   88  68  51 VRB6      30.01F HX  91
ANDALUSIA      SUNNY     91  68  46 N3        30.01F HX  95
TROY           MOSUNNY   88  68  51 NW8       30.02F HX  91
EUFALA         FAIR      88  69  53 VRB6      30.00F HX  92
MOBILE         PTSUNNY   89  69  51 S8        30.01F HX  93
$$

!GAZ120>161-302200
...Southwest and South Central Georgia...

CITY           SKY/WX    TMP DP  RH WIND       PRES   REMARKS
THOMASVILLE    FAIR      90  70  51 NW6       29.99F HX  95
BAINBRIDGE     SUNNY     90  70  51 NW6       29.99F HX  95
MOODY AFB      MOSUNNY   90  70  50 N5        29.97F HX  95
VALDOSTA       PTSUNNY   91  71  51 N5        29.98F HX  97
MOULTRIE       SUNNY     90  70  51 W3        29.99F HX  95
BLAKELY        MOSUNNY   90  68  48 N3        30.00F HX  93
ALBANY         MOSUNNY   90  68  48 NW5       30.01F HX  94
TIFTON         CLOUDY    85  69  58 NE3       29.99F
FITZGERALD     MOCLDY    91  73  54 NW7       30.02F HX  99
CORDELE        FAIR      89  73  58 N3        30.01F HX  97
AMERICUS       MOCLDY    86  68  54 NW7       30.03F
HOMERVILLE     PTSUNNY   88  77  70 NE3       29.98F HX 100
$$

!GMZ750-755-770-775-302200
...Coastal and Buoy Obs...

STATION/POSITION TIME  TEMP    WIND        PRES    VSBY  WAVE
                       AIR SEA DIR/SP/G                  HT/PER
                 (UTC) (F)     (DEG/KT/KT) (MB)    (MI)  (FT/S)
KEATON BEACH     2100   86     270/  5/  6 1014.8F
CEDAR KEY        2000   84     270/  6/  9 1015.3F
C TOWER          2100   84      10/  2/  2 1015.0F
APALACHICOLA BUO 2050   85 87   20/  8/ 12 1015.0F         1/ 4
PANAMA CITY BUOY 1950   82 86   20/ 12/ 14 1016.0          2/ 5
MOBILE BUOY      2050   83 88  340/  4/  6 1016.5F         1/ 5
ORANGE BCH AL BU 2050   83 86  190/  2/  6 1015.7F         1/ 5
$$



USA.gov is the U.S. government's official web portal to all federal, state and local government web resources and services.